Orbital Elements at Epoch 2459200.5 (2020-Dec-17.0) TDB
Reference: JPL 19 (heliocentric ecliptic J2000)
Element | Value | Uncertainty (1-sigma) | Units |
e | .2841435850144215 | 5.2526e-08 | |
a | 3.11956888453406 | 2.1218e-08 | au |
q | 2.233163397983112 | 1.6726e-07 | au |
i | 9.032922435956593 | 5.8996e-06 | deg |
node | 338.9823873709213 | 3.0455e-05 | deg |
peri | 22.84114839691675 | 3.1838e-05 | deg |
M | 306.670309365853 | 1.4522e-05 | deg |
tp | 2459498.630810194232 (2021-Oct-11.13081019) | 8.3627e-05 | TDB |
period | 2012.52042518323 5.51 | 2.0533e-05 5.622e-08 | d yr |
n | .1788801720942652 | 1.825e-09 | deg/d |
Q | 4.005974371085008 | 2.7247e-08 | au |
|
| | Orbit Determination Parameters
Additional Information
|